NORTHEAST SUFFOLK  -  Freeze Watch Freeze Watch        NORTHWEST SUFFOLK  -  Freeze Watch Freeze Watch        SOUTHEAST SUFFOLK  -  Freeze Watch Freeze Watch        SOUTHWEST SUFFOLK  -  Freeze Watch Freeze Watch      

Active alerts

Northwest Suffolk
  Details for Northwest Suffolk Freeze Watch
Southwest Suffolk
  Details for Southwest Suffolk Freeze Watch
Northeast Suffolk
  Details for Northeast Suffolk Freeze Watch
Southeast Suffolk
  Details for Southeast Suffolk Freeze Watch


WXM80 ListenWXM80 Stop

You find our weather info also at:

UK Metoffice

WeatherCloud

Weather Underground

Northeastern Weather Network

AWEKAS

Citizen Weather Observer Program (CWOP)

HAMweather, WeatherForYou, PWS Weather


Weather Underground History page Text

Daily Summary for February 28, 2017 Units:  Metric    English   Both
« Previous Day
Next Day »
Daily Weekly Monthly Yearly Custom
  High: Low: Average:
Temperature: 12.3 °C 5.4 °C 8.2 °C
Dew Point: 10.9 °C 2.6 °C 6.2 °C
Humidity: 96 % 77 % 88 %
Wind Speed: 11.3 km/h 0 km/h 2.9 km/h
Wind Gust: 18.5 km/h - -
Wind:- - ESE
Pressure: 1028.3 hPa 1014.8 hPa -
Precipitation: 0 mm    
Historical Graphs
 
 
Tabular Data for February 28, 2017
Time Temperature Dew Point Pressure Wind Wind Speed Wind Gust Humidity Rainfall Rate (Hourly)
00:01 6.5 °C 2.9 °C 1028 hPa Calm     78 % 0 mm
00:06 6.4 °C 2.8 °C 1028 hPa Calm     78 % 0 mm
00:11 6.3 °C 2.6 °C 1028 hPa SW 1.8 km/h 3.2 km/h 77 % 0 mm
00:16 6.2 °C 2.7 °C 1028 hPa SW 2.4 km/h 5.6 km/h 78 % 0 mm
00:21 6.2 °C 2.6 °C 1028 hPa Calm     78 % 0 mm
00:26 6.1 °C 2.7 °C 1028.3 hPa Calm   1.6 km/h 79 % 0 mm
00:31 6.1 °C 2.9 °C 1028.3 hPa Calm     80 % 0 mm
00:37 6 °C 2.8 °C 1028.3 hPa Calm     80 % 0 mm
00:42 6 °C 2.8 °C 1028.3 hPa SW 0.3 km/h 1.9 km/h 80 % 0 mm
00:47 6 °C 3 °C 1028.3 hPa SW 2.1 km/h 4.8 km/h 81 % 0 mm
00:52 6 °C 2.8 °C 1028.3 hPa WSW 1.3 km/h 4.8 km/h 80 % 0 mm
00:57 6 °C 3 °C 1028.3 hPa WSW 0.8 km/h 3.2 km/h 81 % 0 mm
01:02 6 °C 3 °C 1028.3 hPa WSW 0.6 km/h 3.7 km/h 81 % 0 mm
01:07 6 °C 3 °C 1028.3 hPa Calm   1.9 km/h 81 % 0 mm
01:12 6.1 °C 3.1 °C 1028 hPa WSW 0.2 km/h 1.6 km/h 81 % 0 mm
01:17 6.1 °C 3.1 °C 1028 hPa Calm   1.9 km/h 81 % 0 mm
01:22 6.1 °C 3.1 °C 1028.3 hPa Calm     81 % 0 mm
01:27 6.1 °C 3.1 °C 1028 hPa Calm   1.9 km/h 81 % 0 mm
01:32 6.1 °C 3.3 °C 1028 hPa WSW 1.1 km/h 3.7 km/h 82 % 0 mm
01:37 6.2 °C 3.2 °C 1028 hPa WSW 0.3 km/h 1.9 km/h 81 % 0 mm
01:42 6.2 °C 2.9 °C 1028 hPa WSW 1.3 km/h 3.7 km/h 80 % 0 mm
01:47 6.2 °C 3 °C 1028 hPa WSW 1.9 km/h 3.7 km/h 80 % 0 mm
01:52 6.3 °C 3.1 °C 1028 hPa WSW 0.5 km/h 3.2 km/h 80 % 0 mm
01:57 6.3 °C 3.1 °C 1027.7 hPa Calm     80 % 0 mm
02:02 6.3 °C 3.1 °C 1027.7 hPa Calm     80 % 0 mm
02:07 6.3 °C 3.1 °C 1027.7 hPa Calm     80 % 0 mm
02:12 6.4 °C 3.2 °C 1027.7 hPa Calm     80 % 0 mm
02:17 6.4 °C 3.2 °C 1027.7 hPa Calm     80 % 0 mm
02:22 6.4 °C 3.2 °C 1027.7 hPa Calm     80 % 0 mm
02:27 6.4 °C 3.4 °C 1027.7 hPa Calm     81 % 0 mm
02:33 6.3 °C 3.1 °C 1027.3 hPa Calm     80 % 0 mm
02:38 6.3 °C 3.1 °C 1027.3 hPa Calm     80 % 0 mm
02:43 6.3 °C 3.1 °C 1027.3 hPa Calm     80 % 0 mm
02:48 6.3 °C 3.1 °C 1027 hPa Calm     80 % 0 mm
02:53 6.3 °C 3.3 °C 1027.3 hPa Calm     81 % 0 mm
02:58 6.2 °C 3.2 °C 1027.3 hPa Calm     81 % 0 mm
03:03 6.2 °C 3.2 °C 1027.3 hPa Calm     81 % 0 mm
03:08 6.2 °C 3.2 °C 1027.3 hPa Calm     81 % 0 mm
03:13 6.2 °C 3.2 °C 1027.3 hPa Calm     81 % 0 mm
03:18 6.2 °C 3.4 °C 1027.3 hPa Calm     82 % 0 mm
03:23 6.2 °C 3.2 °C 1027.3 hPa Calm   1.6 km/h 81 % 0 mm
03:28 6.2 °C 3.2 °C 1027 hPa Calm   1.6 km/h 81 % 0 mm
03:33 6.2 °C 3.2 °C 1027 hPa SW 0.5 km/h 4.8 km/h 81 % 0 mm
03:38 6.2 °C 3.2 °C 1027 hPa WSW 1.6 km/h 3.2 km/h 81 % 0 mm
03:43 6.2 °C 3.2 °C 1027 hPa Calm   3.2 km/h 81 % 0 mm
03:48 6.2 °C 3.4 °C 1027 hPa SW 1.6 km/h 4.8 km/h 82 % 0 mm
03:53 6.3 °C 3.4 °C 1027 hPa SW 0.2 km/h 1.9 km/h 82 % 0 mm
03:58 6.3 °C 3.5 °C 1027 hPa SW 1.6 km/h 3.7 km/h 82 % 0 mm
04:03 6.4 °C 3.6 °C 1027 hPa Calm   3.7 km/h 82 % 0 mm
04:08 6.4 °C 3.6 °C 1027 hPa SW 1 km/h 3.7 km/h 82 % 0 mm
04:13 6.5 °C 3.7 °C 1027 hPa Calm   3.2 km/h 82 % 0 mm
04:18 6.6 °C 3.7 °C 1027 hPa Calm   4.8 km/h 82 % 0 mm
04:23 6.7 °C 3.8 °C 1027.3 hPa WSW 1.6 km/h 6.4 km/h 82 % 0 mm
04:28 6.7 °C 3.8 °C 1027.3 hPa Calm   3.2 km/h 82 % 0 mm
04:33 6.8 °C 3.9 °C 1027 hPa Calm   1.6 km/h 82 % 0 mm
04:38 6.8 °C 3.9 °C 1027 hPa Calm   1.6 km/h 82 % 0 mm
04:43 6.8 °C 4 °C 1026.6 hPa Calm     82 % 0 mm
04:48 6.9 °C 3.8 °C 1027 hPa Calm     81 % 0 mm
04:53 6.9 °C 3.9 °C 1027 hPa Calm     81 % 0 mm
04:58 6.9 °C 3.9 °C 1027 hPa Calm     81 % 0 mm
05:03 6.9 °C 3.9 °C 1027.3 hPa Calm   3.7 km/h 81 % 0 mm
05:08 6.9 °C 3.9 °C 1027 hPa Calm   1.9 km/h 81 % 0 mm
05:13 6.9 °C 3.9 °C 1027.3 hPa Calm     81 % 0 mm
05:18 6.9 °C 3.9 °C 1027.3 hPa Calm     81 % 0 mm
05:21 6.9 °C 3.9 °C 1027.3 hPa Calm     81 % 0 mm
05:26 6.9 °C 3.8 °C 1027.3 hPa Calm     81 % 0 mm
05:31 6.9 °C 3.8 °C 1027.3 hPa Calm     81 % 0 mm
05:36 6.8 °C 3.8 °C 1027.3 hPa Calm     81 % 0 mm
05:41 6.8 °C 3.7 °C 1027.3 hPa Calm   1.9 km/h 81 % 0 mm
05:46 6.8 °C 3.7 °C 1027.3 hPa Calm     81 % 0 mm
05:51 6.7 °C 3.9 °C 1027.3 hPa Calm     82 % 0 mm
05:56 6.7 °C 3.8 °C 1027.3 hPa Calm   1.9 km/h 82 % 0 mm
06:01 6.6 °C 3.5 °C 1027.3 hPa Calm     81 % 0 mm
06:06 6.5 °C 3.7 °C 1027.3 hPa Calm     82 % 0 mm
06:11 6.4 °C 3.6 °C 1027.3 hPa Calm     82 % 0 mm
06:16 6.4 °C 3.6 °C 1027.3 hPa Calm     82 % 0 mm
06:21 6.3 °C 3.4 °C 1027.3 hPa Calm     82 % 0 mm
06:26 6.2 °C 3.4 °C 1027 hPa Calm     82 % 0 mm
06:31 6.2 °C 3.5 °C 1027 hPa Calm     83 % 0 mm
06:36 6.1 °C 3.4 °C 1027 hPa Calm     83 % 0 mm
06:41 6.1 °C 3.4 °C 1027 hPa Calm     83 % 0 mm
06:46 6 °C 3.5 °C 1027 hPa Calm     84 % 0 mm
06:51 5.9 °C 3.4 °C 1027 hPa Calm     84 % 0 mm
06:56 5.8 °C 3.5 °C 1026.6 hPa Calm     85 % 0 mm
07:02 5.8 °C 3.5 °C 1027 hPa SSW 0.5 km/h 1.9 km/h 85 % 0 mm
07:07 5.8 °C 3.6 °C 1027 hPa ENE 0.5 km/h 1.9 km/h 86 % 0 mm
07:12 5.8 °C 3.6 °C 1027 hPa ENE 1.4 km/h 3.7 km/h 86 % 0 mm
07:17 5.8 °C 3.8 °C 1027 hPa ENE 1.1 km/h 3.7 km/h 87 % 0 mm
07:22 5.8 °C 3.8 °C 1027 hPa ENE 0.3 km/h 3.7 km/h 87 % 0 mm
07:27 5.8 °C 3.9 °C 1027.3 hPa ENE 1.6 km/h 3.7 km/h 88 % 0 mm
07:32 5.8 °C 3.9 °C 1027 hPa ENE 1.3 km/h 3.7 km/h 88 % 0 mm
07:37 5.8 °C 3.9 °C 1027.3 hPa ENE 3.1 km/h 4.8 km/h 88 % 0 mm
07:42 5.7 °C 3.9 °C 1027.3 hPa ENE 0.6 km/h 3.7 km/h 88 % 0 mm
07:47 5.7 °C 4 °C 1027.3 hPa ENE 0.5 km/h 1.9 km/h 89 % 0 mm
07:52 5.7 °C 4 °C 1027.3 hPa ENE 3.5 km/h 4.8 km/h 89 % 0 mm
07:57 5.6 °C 3.9 °C 1027.3 hPa ENE 2.6 km/h 3.7 km/h 89 % 0 mm
08:02 5.6 °C 3.9 °C 1027.3 hPa ENE 2.6 km/h 3.7 km/h 89 % 0 mm
08:07 5.5 °C 3.8 °C 1027.7 hPa ENE 3.5 km/h 5.6 km/h 89 % 0 mm
08:12 5.5 °C 4 °C 1027.7 hPa NNE 1.9 km/h 5.6 km/h 90 % 0 mm
08:17 5.5 °C 4 °C 1027.7 hPa NNE 2.4 km/h 3.7 km/h 90 % 0 mm
08:22 5.5 °C 4 °C 1027.7 hPa NE 0.6 km/h 3.2 km/h 90 % 0 mm
08:27 5.5 °C 4 °C 1027.7 hPa ENE 3.5 km/h 6.4 km/h 90 % 0 mm
08:32 5.4 °C 3.9 °C 1027.3 hPa ENE 2.7 km/h 5.6 km/h 90 % 0 mm
08:37 5.4 °C 3.9 °C 1027.3 hPa ENE 4.2 km/h 5.6 km/h 90 % 0 mm
08:42 5.4 °C 4.1 °C 1027.3 hPa ENE 4.3 km/h 5.6 km/h 91 % 0 mm
08:47 5.4 °C 4.1 °C 1027.3 hPa ENE 6.4 km/h 8 km/h 91 % 0 mm
08:52 5.4 °C 4.1 °C 1027.3 hPa ENE 3.5 km/h 6.4 km/h 91 % 0 mm
08:57 5.4 °C 4.1 °C 1027.3 hPa East 4.8 km/h 7.4 km/h 91 % 0 mm
09:03 5.6 °C 4.2 °C 1027.3 hPa East 5.1 km/h 8 km/h 91 % 0 mm
09:08 5.6 °C 4.3 °C 1027.3 hPa ENE 7.1 km/h 8 km/h 91 % 0 mm
09:13 5.7 °C 4.3 °C 1027.3 hPa East 7.1 km/h 9.3 km/h 91 % 0 mm
09:18 5.7 °C 4.4 °C 1027 hPa East 7.2 km/h 9.3 km/h 91 % 0 mm
09:23 5.7 °C 4.4 °C 1027 hPa NE 5.6 km/h 11.1 km/h 91 % 0 mm
09:28 5.7 °C 4.2 °C 1027 hPa East 8 km/h 11.1 km/h 90 % 0 mm
09:33 5.7 °C 4.4 °C 1027 hPa East 9 km/h 12.9 km/h 91 % 0 mm
09:38 5.8 °C 4.4 °C 1027 hPa ENE 3.7 km/h 5.6 km/h 91 % 0 mm
09:43 5.8 °C 4.5 °C 1027 hPa East 6.6 km/h 11.1 km/h 91 % 0 mm
09:48 5.9 °C 4.6 °C 1027 hPa ENE 4.8 km/h 12.9 km/h 91 % 0 mm
09:53 6.1 °C 4.7 °C 1027 hPa ENE 8 km/h 16.1 km/h 91 % 0 mm
09:58 6.2 °C 4.7 °C 1027 hPa ENE 7.7 km/h 11.3 km/h 90 % 0 mm
10:03 6.3 °C 4.8 °C 1026.6 hPa ENE 8.2 km/h 9.7 km/h 90 % 0 mm
10:08 6.4 °C 4.9 °C 1026.6 hPa East 8.2 km/h 13 km/h 90 % 0 mm
10:13 6.5 °C 5 °C 1026.6 hPa ENE 7.4 km/h 11.1 km/h 90 % 0 mm
10:18 6.6 °C 4.9 °C 1026.6 hPa ENE 6.6 km/h 7.4 km/h 89 % 0 mm
10:23 6.7 °C 5 °C 1026.6 hPa NE 10.9 km/h 14.8 km/h 89 % 0 mm
10:28 6.7 °C 5.1 °C 1026.6 hPa ENE 7.7 km/h 13 km/h 89 % 0 mm
10:33 6.9 °C 5.1 °C 1026.6 hPa ENE 10.6 km/h 14.8 km/h 88 % 0 mm
10:38 7.1 °C 5.2 °C 1026.6 hPa ENE 9.2 km/h 11.1 km/h 88 % 0 mm
10:43 7.1 °C 5.1 °C 1026.3 hPa ENE 9 km/h 13 km/h 87 % 0 mm
10:48 7.1 °C 5.1 °C 1026.3 hPa NE 5.3 km/h 7.4 km/h 87 % 0 mm
10:54 7.3 °C 5.3 °C 1026.6 hPa East 8.4 km/h 14.8 km/h 87 % 0 mm
10:59 7.3 °C 5.3 °C 1026.6 hPa NE 2.7 km/h 9.7 km/h 87 % 0 mm
11:04 7.4 °C 5.2 °C 1026.6 hPa NE 6 km/h 8 km/h 86 % 0 mm
11:09 7.4 °C 5.2 °C 1026.3 hPa NE 4.7 km/h 8 km/h 86 % 0 mm
11:14 7.4 °C 5.3 °C 1026.6 hPa ENE 5.6 km/h 7.4 km/h 86 % 0 mm
11:19 7.6 °C 5.4 °C 1026.6 hPa NNE 3.2 km/h 5.6 km/h 86 % 0 mm
11:21 7.6 °C 5.4 °C 1026.3 hPa NE 4.5 km/h 8 km/h 86 % 0 mm
11:26 7.6 °C 5.2 °C 1026.3 hPa NE 4.8 km/h 7.4 km/h 85 % 0 mm
11:31 7.7 °C 5.3 °C 1026.3 hPa NE 3.5 km/h 5.6 km/h 85 % 0 mm
11:36 7.6 °C 5.2 °C 1026.3 hPa East 3.7 km/h 5.6 km/h 85 % 0 mm
11:41 7.4 °C 5.1 °C 1026.3 hPa NE 5.8 km/h 7.4 km/h 85 % 0 mm
11:46 7.4 °C 5.1 °C 1026 hPa NE 5.1 km/h 11.1 km/h 85 % 0 mm
11:51 7.5 °C 5.2 °C 1025.6 hPa East 6.4 km/h 11.1 km/h 85 % 0 mm
11:56 7.8 °C 5.7 °C 1025.6 hPa NE 6.4 km/h 8 km/h 87 % 0 mm
12:01 7.8 °C 5.4 °C 1025.3 hPa East 8.2 km/h 11.1 km/h 85 % 0 mm
12:06 7.8 °C 5.4 °C 1025.3 hPa ENE 5.6 km/h 9.3 km/h 85 % 0 mm
12:11 7.8 °C 5.4 °C 1025.3 hPa ENE 7.1 km/h 9.3 km/h 85 % 0 mm
12:16 8.1 °C 5.8 °C 1025.3 hPa East 5.6 km/h 9.3 km/h 86 % 0 mm
12:21 8.3 °C 5.7 °C 1024.9 hPa ENE 5.3 km/h 11.1 km/h 84 % 0 mm
12:26 8.2 °C 5.6 °C 1024.6 hPa NE 7.7 km/h 13 km/h 84 % 0 mm
12:31 8 °C 5.4 °C 1024.6 hPa ENE 6.3 km/h 9.3 km/h 84 % 0 mm
12:37 8.1 °C 5.7 °C 1024.6 hPa NE 4.5 km/h 7.4 km/h 85 % 0 mm
12:42 8.2 °C 5.8 °C 1024.6 hPa NE 7.9 km/h 13 km/h 85 % 0 mm
12:47 8.1 °C 5.6 °C 1024.6 hPa ENE 6.3 km/h 13 km/h 84 % 0 mm
12:52 8.1 °C 5.7 °C 1024.6 hPa ENE 5.6 km/h 8 km/h 85 % 0 mm
12:57 8.1 °C 5.7 °C 1024.3 hPa ENE 4.2 km/h 8 km/h 85 % 0 mm
13:02 8.3 °C 5.9 °C 1024.3 hPa ENE 4.7 km/h 9.3 km/h 85 % 0 mm
13:07 8.5 °C 6.1 °C 1024.3 hPa East 4 km/h 11.1 km/h 85 % 0 mm
13:12 8.7 °C 6.3 °C 1024.3 hPa NE 3.1 km/h 7.4 km/h 85 % 0 mm
13:17 8.9 °C 6.4 °C 1023.9 hPa NE 5 km/h 8 km/h 84 % 0 mm
13:20 8.9 °C 6.2 °C 1023.9 hPa ENE 3.5 km/h 7.4 km/h 83 % 0 mm
13:25 8.8 °C 6.1 °C 1023.9 hPa ENE 3.7 km/h 5.6 km/h 83 % 0 mm
13:30 8.8 °C 6.3 °C 1023.9 hPa NE 6.4 km/h 7.4 km/h 84 % 0 mm
13:35 8.7 °C 6.2 °C 1023.6 hPa NE 8.4 km/h 13 km/h 84 % 0 mm
13:40 8.8 °C 6.2 °C 1023.2 hPa ENE 5.8 km/h 7.4 km/h 84 % 0 mm
13:45 8.8 °C 6.4 °C 1023.2 hPa NE 6.4 km/h 7.4 km/h 85 % 0 mm
13:50 8.8 °C 6.2 °C 1022.9 hPa NE 6.6 km/h 11.1 km/h 84 % 0 mm
13:55 8.8 °C 6.3 °C 1022.9 hPa ENE 5 km/h 11.1 km/h 84 % 0 mm
14:01 8.8 °C 6.2 °C 1023.2 hPa ENE 5.6 km/h 11.1 km/h 84 % 0 mm
14:06 8.8 °C 6.4 °C 1022.9 hPa ENE 5.6 km/h 8 km/h 85 % 0 mm
14:11 8.8 °C 6.4 °C 1023.2 hPa NE 4.8 km/h 5.6 km/h 85 % 0 mm
14:16 8.7 °C 6.3 °C 1022.9 hPa ENE 1.9 km/h 5.6 km/h 85 % 0 mm
14:21 8.7 °C 6.3 °C 1022.9 hPa ENE 5.3 km/h 6.4 km/h 85 % 0 mm
14:26 8.6 °C 6.2 °C 1022.9 hPa NE 5 km/h 6.4 km/h 85 % 0 mm
14:31 8.4 °C 6 °C 1022.6 hPa ENE 5.6 km/h 8 km/h 85 % 0 mm
14:36 8.3 °C 6.1 °C 1022.6 hPa ENE 2.7 km/h 5.6 km/h 86 % 0 mm
14:41 8.2 °C 6.2 °C 1022.6 hPa ENE 7.2 km/h 11.3 km/h 87 % 0 mm
14:46 8.2 °C 6.3 °C 1022.9 hPa ENE 5 km/h 5.6 km/h 88 % 0 mm
14:51 8.3 °C 6.4 °C 1022.6 hPa NE 3.4 km/h 5.6 km/h 88 % 0 mm
14:56 8.3 °C 6.4 °C 1022.6 hPa ENE 2.4 km/h 5.6 km/h 88 % 0 mm
15:01 8.3 °C 6.4 °C 1022.2 hPa ENE 2.3 km/h 5.6 km/h 88 % 0 mm
15:06 8.3 °C 6.4 °C 1022.2 hPa NE 6.1 km/h 8 km/h 88 % 0 mm
15:11 8.3 °C 6.4 °C 1021.9 hPa ENE 3.1 km/h 5.6 km/h 88 % 0 mm
15:16 8.3 °C 6.4 °C 1021.9 hPa NNE 3.1 km/h 5.6 km/h 88 % 0 mm
15:21 8.3 °C 6.4 °C 1021.9 hPa NNE 4.7 km/h 5.6 km/h 88 % 0 mm
15:26 8.3 °C 6.4 °C 1021.6 hPa NE 1.4 km/h 3.7 km/h 88 % 0 mm
15:31 8.2 °C 6.3 °C 1021.6 hPa ENE 3.4 km/h 5.6 km/h 88 % 0 mm
15:36 8.1 °C 6.2 °C 1021.2 hPa NE 1.9 km/h 5.6 km/h 88 % 0 mm
15:41 8.1 °C 6.2 °C 1021.2 hPa NE 1.4 km/h 3.7 km/h 88 % 0 mm
15:47 8 °C 6.1 °C 1021.2 hPa NE 1.1 km/h 5.6 km/h 88 % 0 mm
15:52 8.1 °C 6.3 °C 1021.2 hPa NE 1.4 km/h 3.7 km/h 89 % 0 mm
15:57 8.1 °C 6.3 °C 1021.2 hPa NE 2.7 km/h 5.6 km/h 89 % 0 mm
16:02 8.2 °C 6.4 °C 1021.2 hPa NE 1 km/h 5.6 km/h 89 % 0 mm
16:03 8.2 °C 6.4 °C 1020.9 hPa North 1.1 km/h 4.8 km/h 89 % 0 mm
16:08 8.2 °C 6.5 °C 1020.5 hPa North 1.1 km/h 3.7 km/h 89 % 0 mm
16:13 8.3 °C 6.6 °C 1020.5 hPa North 3.5 km/h 5.6 km/h 89 % 0 mm
16:18 8.3 °C 6.6 °C 1020.5 hPa North 1.6 km/h 6.4 km/h 89 % 0 mm
16:23 8.4 °C 6.7 °C 1020.5 hPa Calm   1.6 km/h 89 % 0 mm
16:28 8.5 °C 6.8 °C 1020.5 hPa ESE 1.6 km/h 11.3 km/h 89 % 0 mm
16:33 8.7 °C 7.2 °C 1020.5 hPa SSE 3.2 km/h 9.7 km/h 90 % 0 mm
16:38 9.2 °C 8.2 °C 1020.5 hPa SSE 3.2 km/h 8 km/h 93 % 0 mm
16:43 9.6 °C 8.6 °C 1020.5 hPa SSE 3.2 km/h 8 km/h 93 % 0 mm
16:48 10.2 °C 9.3 °C 1020.5 hPa Calm   4.8 km/h 94 % 0 mm
16:53 10.7 °C 9.7 °C 1020.5 hPa SSE 8 km/h 14.5 km/h 94 % 0 mm
16:58 11.1 °C 10.2 °C 1020.5 hPa SSE 8.4 km/h 9.3 km/h 94 % 0 mm
17:03 11.4 °C 10.3 °C 1020.9 hPa SSW 2.4 km/h 7.4 km/h 93 % 0 mm
17:08 11.6 °C 10.3 °C 1020.9 hPa South 1.9 km/h 7.4 km/h 92 % 0 mm
17:13 11.8 °C 10.6 °C 1020.9 hPa SE 0.6 km/h 3.7 km/h 92 % 0 mm
17:18 12 °C 10.7 °C 1020.9 hPa South 1.6 km/h 5.6 km/h 92 % 0 mm
17:23 12.2 °C 10.7 °C 1020.9 hPa SSE 0.5 km/h 5.6 km/h 91 % 0 mm
17:28 12.2 °C 10.8 °C 1020.9 hPa South 3.7 km/h 9.3 km/h 91 % 0 mm
17:33 12.3 °C 10.8 °C 1020.9 hPa SSE 5.8 km/h 11.1 km/h 91 % 0 mm
17:38 12.3 °C 10.9 °C 1020.9 hPa South 3.4 km/h 7.4 km/h 91 % 0 mm
17:43 12.3 °C 10.7 °C 1021.2 hPa SSW 2.7 km/h 5.6 km/h 90 % 0 mm
17:48 12.3 °C 10.8 °C 1020.9 hPa South 2.6 km/h 5.6 km/h 91 % 0 mm
17:54 12.3 °C 10.8 °C 1020.9 hPa South 1.8 km/h 5.6 km/h 91 % 0 mm
17:59 12.2 °C 10.6 °C 1020.9 hPa SE 1 km/h 3.7 km/h 90 % 0 mm
18:04 12.1 °C 10.1 °C 1020.9 hPa Calm     88 % 0 mm
18:09 11.9 °C 10.2 °C 1020.9 hPa South 5 km/h 11.1 km/h 89 % 0 mm
18:14 11.9 °C 10.3 °C 1020.9 hPa SSE 0.2 km/h 1.9 km/h 90 % 0 mm
18:19 11.8 °C 9.8 °C 1020.9 hPa ENE 0.8 km/h 5.6 km/h 88 % 0 mm
18:24 11.6 °C 9.8 °C 1020.5 hPa South 0.8 km/h 5.6 km/h 89 % 0 mm
18:29 11.6 °C 10 °C 1020.9 hPa Calm     90 % 0 mm
18:34 11.4 °C 9.7 °C 1020.5 hPa Calm   1.9 km/h 89 % 0 mm
18:39 11.4 °C 9.7 °C 1020.2 hPa East 2.4 km/h 5.6 km/h 89 % 0 mm
18:44 11.1 °C 9 °C 1020.2 hPa Calm     87 % 0 mm
18:49 10.8 °C 8.6 °C 1020.2 hPa SE 0.6 km/h 3.7 km/h 86 % 0 mm
18:54 10.7 °C 9 °C 1020.2 hPa SSE 1.3 km/h 3.7 km/h 89 % 0 mm
19:04 10.8 °C 9.7 °C 1019.9 hPa SSE 4.2 km/h 9.3 km/h 93 % 0 mm
19:09 11 °C 10.1 °C 1019.5 hPa SSE 2.1 km/h 5.6 km/h 94 % 0 mm
19:14 11.1 °C 10.3 °C 1019.5 hPa SSE 1.9 km/h 7.4 km/h 95 % 0 mm
19:19 11.2 °C 10.4 °C 1019.9 hPa SSE 4 km/h 8 km/h 95 % 0 mm
19:24 11.2 °C 10.4 °C 1019.5 hPa South 5.3 km/h 8 km/h 95 % 0 mm
19:29 11.2 °C 10.4 °C 1019.5 hPa SSW 2.7 km/h 2.7 km/h 95 % 0 mm
19:34 11.2 °C 10.4 °C 1019.5 hPa SSW 4.8 km/h 7.4 km/h 95 % 0 mm
19:39 11.2 °C 10.4 °C 1019.5 hPa South 4.7 km/h 7.4 km/h 95 % 0 mm
19:44 11.2 °C 10.4 °C 1019.9 hPa South 1 km/h 3.7 km/h 95 % 0 mm
19:49 11.2 °C 10.4 °C 1019.5 hPa SSE 6.8 km/h 11.1 km/h 95 % 0 mm
19:54 11.2 °C 10.6 °C 1019.5 hPa SSE 5.1 km/h 8 km/h 96 % 0 mm
20:00 11.2 °C 10.6 °C 1019.9 hPa South 1.3 km/h 7.4 km/h 96 % 0 mm
20:05 11.2 °C 10.4 °C 1019.5 hPa SSE 4 km/h 14.5 km/h 95 % 0 mm
20:10 11.2 °C 10.4 °C 1019.5 hPa SSE 0.5 km/h 5.6 km/h 95 % 0 mm
20:15 11.2 °C 10.6 °C 1019.5 hPa SSE 2.6 km/h 5.6 km/h 96 % 0 mm
20:20 11.1 °C 10.5 °C 1019.5 hPa SE 2.9 km/h 6.4 km/h 96 % 0 mm
20:25 11.1 °C 10.4 °C 1019.2 hPa SSW 3.5 km/h 6.4 km/h 96 % 0 mm
20:30 11 °C 10.4 °C 1019.2 hPa South 3.1 km/h 7.4 km/h 96 % 0 mm
20:35 10.9 °C 10.3 °C 1018.8 hPa ESE 5.8 km/h 9.3 km/h 96 % 0 mm
20:40 10.9 °C 10.3 °C 1018.8 hPa SSE 4.7 km/h 9.3 km/h 96 % 0 mm
20:45 10.9 °C 10.3 °C 1018.8 hPa South 4.3 km/h 9.7 km/h 96 % 0 mm
20:50 10.8 °C 10.2 °C 1018.5 hPa South 6 km/h 12.9 km/h 96 % 0 mm
20:55 10.8 °C 10.2 °C 1018.5 hPa SSW 11.3 km/h 18.5 km/h 96 % 0 mm
21:00 10.8 °C 10.2 °C 1018.5 hPa SSE 5 km/h 11.1 km/h 96 % 0 mm
21:05 10.8 °C 10.2 °C 1018.2 hPa South 4.2 km/h 11.1 km/h 96 % 0 mm
21:10 10.8 °C 10.2 °C 1018.2 hPa South 2.7 km/h 8 km/h 96 % 0 mm
21:15 10.7 °C 10.1 °C 1018.2 hPa SSW 4.3 km/h 8 km/h 96 % 0 mm
21:20 10.7 °C 10.1 °C 1018.2 hPa South 3.4 km/h 11.1 km/h 96 % 0 mm
21:25 10.7 °C 10.1 °C 1018.2 hPa SSW 1.9 km/h 11.3 km/h 96 % 0 mm
21:30 10.7 °C 10.1 °C 1018.2 hPa SSW 2.4 km/h 5.6 km/h 96 % 0 mm
21:35 10.7 °C 10.1 °C 1017.8 hPa SSW 4.7 km/h 8 km/h 96 % 0 mm
21:40 10.7 °C 10.1 °C 1017.8 hPa SSW 1 km/h 7.4 km/h 96 % 0 mm
21:45 10.7 °C 10.1 °C 1017.8 hPa South 1.4 km/h 5.6 km/h 96 % 0 mm
21:51 10.7 °C 10.1 °C 1017.5 hPa SSE 2.7 km/h 5.6 km/h 96 % 0 mm
21:56 10.7 °C 10.1 °C 1017.5 hPa SSE 2.1 km/h 5.6 km/h 96 % 0 mm
22:01 10.7 °C 10.1 °C 1017.8 hPa South 1.4 km/h 3.7 km/h 96 % 0 mm
22:06 10.8 °C 10.2 °C 1017.5 hPa South 2.6 km/h 5.6 km/h 96 % 0 mm
22:11 10.8 °C 10.2 °C 1017.2 hPa South 3.4 km/h 5.6 km/h 96 % 0 mm
22:16 10.8 °C 10.2 °C 1016.8 hPa SSE 3.1 km/h 9.7 km/h 96 % 0 mm
22:21 10.8 °C 10.2 °C 1016.5 hPa South 4 km/h 5.6 km/h 96 % 0 mm
22:26 10.8 °C 10.2 °C 1016.5 hPa South 5.8 km/h 9.3 km/h 96 % 0 mm
22:31 10.8 °C 10.2 °C 1016.1 hPa South 2.4 km/h 5.6 km/h 96 % 0 mm
22:36 10.8 °C 10.2 °C 1016.1 hPa SSW 6.6 km/h 8 km/h 96 % 0 mm
22:41 10.8 °C 10.2 °C 1016.1 hPa SSW 1.1 km/h 5.6 km/h 96 % 0 mm
22:46 10.8 °C 10.2 °C 1015.8 hPa South 1.3 km/h 3.7 km/h 96 % 0 mm
22:51 10.8 °C 10.2 °C 1015.8 hPa SSW 1.8 km/h 5.6 km/h 96 % 0 mm
23:10 10.9 °C 10.3 °C 1015.8 hPa SSW 4 km/h 6.4 km/h 96 % 0 mm
23:15 10.9 °C 10.3 °C 1015.8 hPa Calm   3.7 km/h 96 % 0 mm
23:20 10.9 °C 10.3 °C 1015.5 hPa SSW 1.4 km/h 3.7 km/h 96 % 0 mm
23:25 11 °C 10.4 °C 1015.5 hPa SSW 3.1 km/h 3.7 km/h 96 % 0 mm
23:30 11 °C 10.4 °C 1015.5 hPa SW 2.7 km/h 5.6 km/h 96 % 0 mm
23:35 11.1 °C 10.4 °C 1015.1 hPa SSW 0.8 km/h   96 % 0 mm
23:40 11.1 °C 10.4 °C 1015.1 hPa SSW 1.4 km/h 5.6 km/h 96 % 0 mm
23:45 11.1 °C 10.3 °C 1015.1 hPa SSW 3.5 km/h 5.6 km/h 95 % 0 mm
23:50 11.2 °C 10.4 °C 1015.1 hPa South 4.8 km/h 9.3 km/h 95 % 0 mm
23:55 11.2 °C 10.6 °C 1014.8 hPa South 2.4 km/h 9.3 km/h 96 % 0 mm
Crab Meadow Weather
Compliments of Weather Underground - 3 mb

Script developed by  Jim McMurry - jmcmurry@mwt.net Adapted for the template by  Wim van der Kuil - Leuven-Template.eu

Weather Terms: Flood Watch - Conditions are favorable for flash flooding in and close to the watch area. These watches are issued by the Weather Forecast Office in Upton and are usually for the first 12 to 24 hours of a forecast.